This is the latest recevied weather packets stored in our database for station/object KA3ZXO. If no packets are shown the sender has not sent any weather packets the latest 10 day(s).
| Time | Temp. | Humidity | Pressure | Rain* | Wind** | Luminosity | Snow |
|---|---|---|---|---|---|---|---|
| 1777657973 | 17.78° C | 45% | 1013.6 hPa | 0 mm | - | 60 W/m² | - |
| 1777657372 | 17.22° C | 40% | 1013.8 hPa | 0 mm | - | 151 W/m² | - |
| 1777656773 | 17.78° C | 38% | 1013.7 hPa | 0 mm | - | 255 W/m² | - |
| 1777656170 | 17.22° C | 40% | 1013.9 hPa | 0 mm | - | 51 W/m² | - |
| 1777655569 | 16.67° C | 40% | 1013.9 hPa | 0 mm | - | 37 W/m² | - |
| 1777654969 | 16.67° C | 41% | 1013.8 hPa | 0 mm | - | 111 W/m² | - |
| 1777654363 | 16.67° C | 40% | 1014.2 hPa | 0 mm | - | 65 W/m² | - |
| 1777653763 | 16.11° C | 41% | 1014.2 hPa | 0 mm | - | 38 W/m² | - |
| 1777653163 | 15.56° C | 42% | 1014.6 hPa | 0 mm | - | 35 W/m² | - |
| 1777652561 | 15.56° C | 43% | 1014.5 hPa | 0 mm | - | 47 W/m² | - |
| 1777651961 | 15.56° C | 41% | 1014.6 hPa | 0 mm | - | 35 W/m² | - |
| 1777651360 | 15.56° C | 44% | 1014.8 hPa | 0 mm | - | 197 W/m² | - |
| 1777650760 | 15° C | 43% | 1014.9 hPa | 0 mm | - | 32 W/m² | - |
| 1777650160 | 14.44° C | 44% | 1015 hPa | 0 mm | - | 37 W/m² | - |
| 1777649555 | 15° C | 45% | 1015.4 hPa | 0 mm | - | 30 W/m² | - |
| 1777648954 | 14.44° C | 47% | 1015.4 hPa | 0 mm | - | 36 W/m² | - |
| 1777648353 | 14.44° C | 47% | 1015.6 hPa | 0 mm | - | 29 W/m² | - |
| 1777647752 | 13.89° C | 47% | 1015.7 hPa | 0 mm | - | 35 W/m² | - |
| 1777647146 | 13.33° C | 48% | 1016 hPa | 0 mm | - | 337 W/m² | - |
| 1777646544 | 13.33° C | 49% | 1015.7 hPa | 0 mm | - | 42 W/m² | - |
| 1777645944 | 12.78° C | 49% | 1015.6 hPa | 0 mm | - | 82 W/m² | - |
| 1777645342 | 12.78° C | 53% | 1015.6 hPa | 0 mm | - | 26 W/m² | - |
| 1777644741 | 12.78° C | 58% | 1015.9 hPa | 0 mm | - | 25 W/m² | - |
| 1777644140 | 12.22° C | 55% | 1015.6 hPa | 0 mm | - | 24 W/m² | - |
| 1777643540 | 12.22° C | 60% | 1015.6 hPa | 0 mm | - | 23 W/m² | - |
* Rain latest hour (hover to see other rain measurements)
** Current wind speed in m/s (hover to see current wind gust speed)